Home   Weather   Albuquerque   Past weeks
Flag for USA

Past Weather in Albuquerque, New Mexico, USA — Yesterday and Last 2 Weeks

Now
53 °F

Clear.


Feels Like: 50 °F
Forecast: 63 / 43 °F
Wind: 9 mph from Southeast

Location: Albuquerque International Airport

Current Time: Oct 19, 2019 at 9:58:03 pm

Latest Report: Oct 19, 2019 at 8:52 pm


Visibility: 10 mi

Pressure: 29.80 "Hg (24.86 "Hg at 1510m altitude)

Humidity: 23%

Dew Point: 16 °F

Location of AlbuquerqueLocation

Past Weather in Albuquerque — Graph

°F

Albuquerque Temperature Yesterday

Maximum temperature yesterday: 71 °F (at 3:52 pm)
Minimum temperature yesterday: 51 °F (at 3:52 am)
Average temperature yesterday: 60 °F

High & Low Weather Summary for the Past Weeks

 TemperatureHumidityPressure
High78 °F (Oct 9, 4:52 pm)97% (Oct 5, 3:30 am)30.31 "Hg (Oct 5, 3:30 am)
Low36 °F (Oct 11, 6:52 am)8% (Oct 10, 7:52 pm)29.59 "Hg (Oct 9, 4:52 pm)
Average59 °F37%29.95 "Hg
* Reported Oct 4 7:52 pm — Oct 19 7:52 pm, Albuquerque. Weather by CustomWeather, © 2019

Note: Actual official high and low records may vary slightly from our data, if they occured in-between our weather recording intervals... More about our weather records

Advertising

Albuquerque Weather History for the Previous 24 Hours

Scroll right to see more
 ConditionsComfort  
Time TempWeatherWind HumidityBarometerVisibility
7:52 pm
Sat, Oct 19
61 °FPassing clouds.12 mph17%29.78 "Hg10 mi
6:52 pm63 °FPassing clouds.8 mph14%29.78 "Hg10 mi
5:52 pm66 °FSunny.13 mph13%29.78 "Hg10 mi
4:52 pm66 °FSunny.9 mph12%29.78 "Hg10 mi
3:52 pm66 °FSunny.8 mph11%29.79 "Hg10 mi
2:52 pm65 °FSunny.10 mph12%29.82 "Hg10 mi
1:52 pm64 °FSunny.8 mph11%29.84 "Hg10 mi
12:52 pm61 °FSunny.3 mph12%29.90 "Hg10 mi
11:52 am58 °FSunny.No wind16%29.93 "Hg10 mi
10:52 am55 °FPassing clouds.5 mph21%29.95 "Hg10 mi
9:52 am50 °FPassing clouds.5 mph32%29.98 "Hg10 mi
8:52 am49 °FSunny.No wind28%29.96 "Hg10 mi
7:52 am43 °FSunny.No wind35%29.95 "Hg10 mi
6:52 am38 °FClear.No wind43%29.95 "Hg10 mi
5:52 am39 °FClear.3 mph41%29.93 "Hg10 mi
4:52 am43 °FClear.No wind34%29.89 "Hg10 mi
3:52 am47 °FClear.6 mph28%29.85 "Hg10 mi
2:52 am48 °FClear.8 mph24%29.85 "Hg10 mi
1:52 am50 °FClear.8 mph26%29.84 "Hg10 mi
12:52 am51 °FClear.10 mph25%29.83 "Hg10 mi
11:52 pm
Fri, Oct 18
54 °FClear.13 mph24%29.81 "Hg10 mi
10:52 pm56 °FClear.14 mph24%29.79 "Hg10 mi
9:52 pm57 °FClear.9 mph27%29.79 "Hg10 mi
Weather by CustomWeather, © 2019

See weather overview